Time,TemperatureF,DewpointF,PressureIn,WindDirection,WindDirectionDegrees,WindSpeedMPH,WindSpeedGustMPH,Humidity,HourlyPrecipIn,Conditions,Clouds,dailyrainin,SoftwareType,DateUTC
2013-05-21 00:03:00,61.0,60.0,30.05,SW,226,0.0,0.0,97,0.00,,,0.10,,2013-05-21 04:03:00,
2013-05-21 00:13:00,60.0,59.0,30.04,SW,226,0.0,0.0,97,0.00,,,0.10,,2013-05-21 04:13:00,
2013-05-21 00:23:00,60.0,59.0,30.04,SW,226,0.0,0.0,97,0.00,,,0.10,,2013-05-21 04:23:00,
2013-05-21 00:33:00,60.0,59.0,30.04,SW,226,0.0,0.0,97,0.00,,,0.10,,2013-05-21 04:33:00,
2013-05-21 00:42:00,60.0,59.0,30.04,SW,226,0.0,0.0,97,0.00,,,0.10,,2013-05-21 04:42:00,
2013-05-21 00:52:00,60.0,59.0,30.04,SW,226,0.0,0.0,97,0.00,,,0.10,,2013-05-21 04:52:00,
2013-05-21 01:02:00,60.0,59.0,30.03,SW,226,0.0,0.0,97,0.00,,,0.10,,2013-05-21 05:02:00,
2013-05-21 01:12:00,60.0,59.0,30.03,SW,226,0.0,0.0,97,0.00,,,0.10,,2013-05-21 05:12:00,
2013-05-21 01:22:00,60.0,59.0,30.03,SW,226,0.0,0.0,97,0.00,,,0.10,,2013-05-21 05:22:00,
2013-05-21 01:32:00,60.0,59.0,30.03,SW,226,0.0,0.0,97,0.00,,,0.10,,2013-05-21 05:32:00,
2013-05-21 01:42:00,60.0,59.0,30.03,SW,226,0.0,0.0,97,0.00,,,0.10,,2013-05-21 05:42:00,
2013-05-21 01:52:00,60.0,59.0,30.03,SW,226,0.0,0.0,97,0.00,,,0.10,,2013-05-21 05:52:00,
2013-05-21 02:02:00,59.0,58.0,30.02,SW,226,0.0,0.0,98,0.00,,,0.10,,2013-05-21 06:02:00,
2013-05-21 02:12:00,59.0,58.0,30.02,SW,226,0.0,0.0,98,0.00,,,0.10,,2013-05-21 06:12:00,
2013-05-21 02:21:00,59.0,58.0,30.02,SW,226,0.0,0.0,98,0.00,,,0.10,,2013-05-21 06:21:00,
2013-05-21 02:32:00,59.0,58.0,30.02,SW,226,0.0,0.0,97,0.00,,,0.10,,2013-05-21 06:32:00,
2013-05-21 02:42:00,59.0,58.0,30.02,SW,226,0.0,0.0,97,0.00,,,0.10,,2013-05-21 06:42:00,
2013-05-21 02:52:00,59.0,58.0,30.01,SW,226,0.0,0.0,98,0.00,,,0.10,,2013-05-21 06:52:00,
2013-05-21 03:01:00,58.0,57.0,30.01,SW,226,0.0,0.0,98,0.00,,,0.10,,2013-05-21 07:01:00,
2013-05-21 03:11:00,58.0,57.0,30.01,SW,226,0.0,0.0,98,0.00,,,0.10,,2013-05-21 07:11:00,
2013-05-21 03:22:00,58.0,57.0,30.00,SW,226,0.0,0.0,98,0.00,,,0.10,,2013-05-21 07:22:00,
2013-05-21 03:31:00,58.0,57.0,30.00,SW,226,0.0,0.0,98,0.00,,,0.10,,2013-05-21 07:31:00,
2013-05-21 03:41:00,58.0,57.0,30.00,SW,226,0.0,0.0,98,0.00,,,0.10,,2013-05-21 07:41:00,
2013-05-21 03:52:00,58.0,57.0,29.99,SW,226,0.0,0.0,98,0.00,,,0.10,,2013-05-21 07:52:00,
2013-05-21 04:02:00,58.0,57.0,29.99,SW,226,0.0,0.0,98,0.00,,,0.10,,2013-05-21 08:02:00,
2013-05-21 04:11:00,58.0,57.0,30.00,SW,226,0.0,0.0,98,0.00,,,0.10,,2013-05-21 08:11:00,
2013-05-21 04:21:00,58.0,57.0,30.00,SW,226,0.0,0.0,98,0.00,,,0.10,,2013-05-21 08:21:00,
2013-05-21 04:31:00,58.0,57.0,30.00,SW,226,0.0,0.0,98,0.00,,,0.10,,2013-05-21 08:31:00,
2013-05-21 04:42:00,58.0,57.0,30.00,SW,234,0.0,0.0,98,0.00,,,0.10,,2013-05-21 08:42:00,
2013-05-21 04:52:00,58.0,57.0,30.00,SW,234,0.0,0.0,98,0.00,,,0.10,,2013-05-21 08:52:00,
2013-05-21 05:01:00,57.0,56.0,30.00,SW,235,0.0,0.0,98,0.00,,,0.10,,2013-05-21 09:01:00,
2013-05-21 05:11:00,57.0,56.0,30.00,SW,235,0.0,0.0,98,0.00,,,0.10,,2013-05-21 09:11:00,
2013-05-21 05:21:00,57.0,56.0,30.00,SW,235,0.0,0.0,98,0.00,,,0.10,,2013-05-21 09:21:00,
2013-05-21 05:32:00,57.0,56.0,30.00,SW,235,0.0,0.0,98,0.00,,,0.10,,2013-05-21 09:32:00,
2013-05-21 05:42:00,57.0,56.0,30.00,SW,235,0.0,0.0,98,0.00,,,0.10,,2013-05-21 09:42:00,
2013-05-21 05:52:00,57.0,56.0,30.02,SW,234,0.0,0.0,98,0.01,,,0.11,,2013-05-21 09:52:00,
2013-05-21 06:03:00,57.0,56.0,30.02,SW,235,0.0,0.0,98,0.01,,,0.11,,2013-05-21 10:03:00,
2013-05-21 06:12:00,57.0,56.0,30.02,SW,235,0.0,0.0,98,0.01,,,0.11,,2013-05-21 10:12:00,
2013-05-21 06:22:00,57.0,56.0,30.02,SW,235,0.0,0.0,98,0.01,,,0.11,,2013-05-21 10:22:00,
2013-05-21 06:32:00,57.0,56.0,30.02,SW,235,0.0,0.0,98,0.00,,,0.11,,2013-05-21 10:32:00,
2013-05-21 06:42:00,57.0,56.0,30.02,SW,235,0.0,0.0,98,0.00,,,0.11,,2013-05-21 10:42:00,
2013-05-21 06:52:00,58.0,57.0,30.02,SW,235,0.0,0.0,98,0.00,,,0.11,,2013-05-21 10:52:00,
2013-05-21 07:02:00,58.0,57.0,30.01,SW,235,0.0,0.0,98,0.00,,,0.11,,2013-05-21 11:02:00,
2013-05-21 07:12:00,58.0,57.0,30.01,SW,235,0.0,0.0,98,0.00,,,0.11,,2013-05-21 11:12:00,
2013-05-21 07:21:00,58.0,57.0,30.01,SW,235,0.0,0.0,98,0.00,,,0.11,,2013-05-21 11:21:00,
2013-05-21 07:32:00,59.0,58.0,30.02,SW,235,0.0,0.0,98,0.00,,,0.11,,2013-05-21 11:32:00,
2013-05-21 07:42:00,59.0,58.0,30.02,SW,235,0.0,0.0,98,0.00,,,0.11,,2013-05-21 11:42:00,
2013-05-21 07:52:00,59.0,58.0,30.02,SW,235,0.0,0.0,98,0.00,,,0.11,,2013-05-21 11:52:00,
2013-05-21 08:01:00,60.0,59.0,30.01,SW,235,0.0,0.0,98,0.00,,,0.11,,2013-05-21 12:01:00,
2013-05-21 08:11:00,60.0,59.0,30.01,SW,235,0.0,0.0,98,0.00,,,0.11,,2013-05-21 12:11:00,
2013-05-21 08:21:00,61.0,60.0,30.01,SW,235,0.0,0.0,98,0.00,,,0.11,,2013-05-21 12:21:00,
2013-05-21 08:32:00,61.0,60.0,30.01,SSW,209,0.0,0.0,98,0.00,,,0.11,,2013-05-21 12:32:00,
2013-05-21 08:42:00,61.0,60.0,30.01,SSW,209,0.0,0.0,98,0.00,,,0.11,,2013-05-21 12:42:00,
2013-05-21 08:51:00,61.0,60.0,30.01,SSW,209,0.0,0.0,98,0.00,,,0.11,,2013-05-21 12:51:00,
2013-05-21 09:01:00,61.0,60.0,30.01,SSW,213,3.0,0.0,98,0.00,,,0.11,,2013-05-21 13:01:00,
2013-05-21 09:12:00,61.0,60.0,30.01,SSW,213,3.0,0.0,98,0.00,,,0.11,,2013-05-21 13:12:00,
2013-05-21 09:22:00,62.0,61.0,30.01,SW,215,0.0,5.0,98,0.01,,,0.12,,2013-05-21 13:22:00,
2013-05-21 09:32:00,62.0,61.0,30.02,SW,233,0.0,5.0,98,0.01,,,0.12,,2013-05-21 13:32:00,
2013-05-21 09:42:00,62.0,61.0,30.02,SW,235,7.0,7.0,98,0.01,,,0.12,,2013-05-21 13:42:00,
2013-05-21 09:52:00,62.0,61.0,30.02,SW,235,7.0,7.0,98,0.01,,,0.12,,2013-05-21 13:52:00,
2013-05-21 10:01:00,62.0,61.0,30.02,SW,235,7.0,7.0,98,0.01,,,0.12,,2013-05-21 14:01:00,
2013-05-21 10:11:00,62.0,61.0,30.02,SW,235,7.0,7.0,98,0.01,,,0.12,,2013-05-21 14:11:00,
2013-05-21 10:21:00,62.0,61.0,30.02,SW,235,7.0,7.0,98,0.01,,,0.12,,2013-05-21 14:21:00,
2013-05-21 10:32:00,64.0,63.0,30.02,WSW,245,0.0,5.0,98,0.00,,,0.12,,2013-05-21 14:32:00,
2013-05-21 10:42:00,64.0,63.0,30.02,WSW,245,0.0,5.0,98,0.00,,,0.12,,2013-05-21 14:42:00,
2013-05-21 10:52:00,64.0,63.0,30.02,WSW,245,0.0,5.0,98,0.00,,,0.12,,2013-05-21 14:52:00,
2013-05-21 11:01:00,68.0,65.0,30.00,SW,230,9.0,9.0,91,0.00,,,0.12,,2013-05-21 15:01:00,
2013-05-21 11:11:00,69.0,66.0,30.01,WSW,243,5.0,5.0,90,0.00,,,0.12,,2013-05-21 15:11:00,
2013-05-21 11:21:00,69.0,66.0,30.01,WSW,243,5.0,5.0,90,0.00,,,0.12,,2013-05-21 15:21:00,
2013-05-21 11:33:00,70.0,67.0,30.00,WSW,239,3.0,11.0,89,0.00,,,0.12,,2013-05-21 15:33:00,
2013-05-21 11:42:00,70.0,66.0,29.98,SW,225,6.0,11.0,87,0.00,,,0.12,,2013-05-21 15:42:00,
2013-05-21 11:53:00,70.0,66.0,29.98,SW,225,6.0,11.0,87,0.00,,,0.12,,2013-05-21 15:53:00,
2013-05-21 12:03:00,70.0,66.0,29.98,SW,220,6.0,11.0,87,0.00,,,0.12,,2013-05-21 16:03:00,
2013-05-21 12:13:00,70.0,66.0,29.98,SW,220,6.0,11.0,87,0.00,,,0.12,,2013-05-21 16:13:00,
2013-05-21 12:23:00,70.0,66.0,29.98,SW,220,6.0,11.0,87,0.00,,,0.12,,2013-05-21 16:23:00,
2013-05-21 12:32:00,71.0,67.0,29.98,SW,229,5.0,8.0,86,0.00,,,0.12,,2013-05-21 16:32:00,
2013-05-21 12:42:00,72.0,67.0,29.98,SSW,210,7.0,8.0,84,0.00,,,0.12,,2013-05-21 16:42:00,
2013-05-21 12:53:00,72.0,67.0,29.98,SSW,210,7.0,8.0,84,0.00,,,0.12,,2013-05-21 16:53:00,
2013-05-21 13:02:00,72.0,67.0,29.97,SW,220,10.0,10.0,83,0.00,,,0.12,,2013-05-21 17:02:00,
2013-05-21 13:12:00,73.0,67.0,29.97,SSW,213,7.0,8.0,81,0.00,,,0.12,,2013-05-21 17:12:00,
2013-05-21 13:23:00,73.0,67.0,29.97,SSW,213,7.0,8.0,81,0.00,,,0.12,,2013-05-21 17:23:00,
2013-05-21 13:32:00,71.0,66.0,29.97,SSE,148,6.0,7.0,83,0.00,,,0.12,,2013-05-21 17:32:00,
2013-05-21 13:43:00,71.0,65.0,29.97,SSW,207,6.0,7.0,81,0.00,,,0.12,,2013-05-21 17:43:00,
2013-05-21 13:52:00,71.0,65.0,29.97,SSW,207,6.0,7.0,81,0.00,,,0.12,,2013-05-21 17:52:00,
2013-05-21 14:02:00,71.0,65.0,29.97,WSW,242,1.0,7.0,81,0.00,,,0.12,,2013-05-21 18:02:00,
2013-05-21 14:12:00,72.0,66.0,29.97,SSW,213,4.0,7.0,81,0.00,,,0.12,,2013-05-21 18:12:00,
2013-05-21 14:22:00,72.0,66.0,29.97,SSW,213,4.0,7.0,81,0.00,,,0.12,,2013-05-21 18:22:00,
2013-05-21 14:32:00,72.0,66.0,29.97,SSW,213,4.0,7.0,81,0.00,,,0.12,,2013-05-21 18:32:00,
2013-05-21 14:42:00,70.0,64.0,29.96,SW,222,5.0,7.0,81,0.00,,,0.12,,2013-05-21 18:42:00,
2013-05-21 14:51:00,70.0,64.0,29.96,SW,222,5.0,7.0,81,0.00,,,0.12,,2013-05-21 18:51:00,
2013-05-21 15:02:00,70.0,64.0,29.96,WSW,241,1.0,7.0,81,0.00,,,0.12,,2013-05-21 19:02:00,
2013-05-21 15:11:00,70.0,64.0,29.96,SW,216,3.0,7.0,81,0.00,,,0.12,,2013-05-21 19:11:00,
2013-05-21 15:21:00,70.0,64.0,29.96,SW,216,3.0,7.0,81,0.00,,,0.12,,2013-05-21 19:21:00,
2013-05-21 15:32:00,70.0,64.0,29.96,SW,217,7.0,9.0,82,0.00,,,0.12,,2013-05-21 19:32:00,
2013-05-21 15:42:00,70.0,64.0,29.94,WSW,240,9.0,9.0,81,0.00,,,0.12,,2013-05-21 19:42:00,
2013-05-21 15:52:00,70.0,64.0,29.94,WSW,240,9.0,9.0,81,0.00,,,0.12,,2013-05-21 19:52:00,
2013-05-21 16:03:00,70.0,64.0,29.94,WSW,240,9.0,9.0,81,0.00,,,0.12,,2013-05-21 20:03:00,
2013-05-21 16:11:00,70.0,64.0,29.94,WSW,240,9.0,9.0,81,0.00,,,0.12,,2013-05-21 20:11:00,
2013-05-21 16:22:00,70.0,64.0,29.94,WSW,240,9.0,9.0,81,0.00,,,0.12,,2013-05-21 20:22:00,
2013-05-21 16:32:00,69.0,64.0,29.93,WSW,243,3.0,8.0,83,0.00,,,0.12,,2013-05-21 20:32:00,
2013-05-21 16:42:00,69.0,64.0,29.93,WSW,243,3.0,8.0,83,0.00,,,0.12,,2013-05-21 20:42:00,
2013-05-21 16:52:00,69.0,64.0,29.93,WSW,243,3.0,8.0,83,0.00,,,0.12,,2013-05-21 20:52:00,
2013-05-21 17:02:00,69.0,64.0,29.93,WSW,243,3.0,8.0,83,0.00,,,0.12,,2013-05-21 21:02:00,
2013-05-21 17:11:00,69.0,64.0,29.93,WSW,243,3.0,8.0,83,0.00,,,0.12,,2013-05-21 21:11:00,
2013-05-21 17:22:00,68.0,63.0,29.94,SSW,199,8.0,8.0,85,0.00,,,0.12,,2013-05-21 21:22:00,
2013-05-21 17:33:00,67.0,62.0,29.93,SW,231,5.0,10.0,85,0.00,,,0.12,,2013-05-21 21:33:00,
2013-05-21 17:43:00,67.0,62.0,29.93,SW,231,5.0,10.0,85,0.00,,,0.12,,2013-05-21 21:43:00,
2013-05-21 17:53:00,67.0,62.0,29.93,SW,231,5.0,10.0,85,0.00,,,0.12,,2013-05-21 21:53:00,
2013-05-21 18:02:00,68.0,64.0,29.92,WSW,239,6.0,10.0,86,0.00,,,0.12,,2013-05-21 22:02:00,
2013-05-21 18:12:00,68.0,64.0,29.93,WSW,237,3.0,10.0,86,0.00,,,0.12,,2013-05-21 22:12:00,
2013-05-21 18:23:00,68.0,64.0,29.93,WSW,237,3.0,10.0,86,0.00,,,0.12,,2013-05-21 22:23:00,
2013-05-21 18:33:00,68.0,63.0,29.94,SW,216,5.0,7.0,85,0.00,,,0.12,,2013-05-21 22:33:00,
2013-05-21 18:42:00,68.0,63.0,29.94,SW,216,5.0,7.0,85,0.00,,,0.12,,2013-05-21 22:42:00,
2013-05-21 18:52:00,68.0,63.0,29.94,SW,216,5.0,7.0,85,0.00,,,0.12,,2013-05-21 22:52:00,
2013-05-21 19:02:00,66.0,61.0,29.96,SW,233,0.0,7.0,85,0.00,,,0.12,,2013-05-21 23:02:00,
2013-05-21 19:12:00,66.0,61.0,29.96,SW,233,0.0,7.0,85,0.00,,,0.12,,2013-05-21 23:12:00,
2013-05-21 19:22:00,66.0,61.0,29.96,SW,233,0.0,7.0,85,0.00,,,0.12,,2013-05-21 23:22:00,
2013-05-21 19:32:00,66.0,61.0,29.96,SW,233,0.0,7.0,85,0.00,,,0.12,,2013-05-21 23:32:00,
2013-05-21 19:42:00,64.0,61.0,30.00,ENE,63,7.0,7.0,89,0.00,,,0.12,,2013-05-21 23:42:00,
2013-05-21 19:52:00,64.0,61.0,30.00,ENE,63,7.0,7.0,89,0.00,,,0.12,,2013-05-21 23:52:00,
2013-05-21 20:01:00,64.0,61.0,29.99,ENE,57,0.0,4.0,89,0.00,,,0.12,,2013-05-22 00:01:00,
2013-05-21 20:11:00,65.0,62.0,30.00,ENE,57,0.0,4.0,89,0.00,,,0.12,,2013-05-22 00:11:00,
2013-05-21 20:21:00,65.0,62.0,30.00,ENE,57,0.0,4.0,89,0.00,,,0.12,,2013-05-22 00:21:00,
2013-05-21 20:32:00,64.0,60.0,29.98,ESE,110,0.0,0.0,88,0.00,,,0.12,,2013-05-22 00:32:00,
2013-05-21 20:41:00,63.0,60.0,29.99,East,90,0.0,0.0,90,0.00,,,0.12,,2013-05-22 00:41:00,
2013-05-21 20:51:00,63.0,60.0,29.99,East,90,0.0,0.0,90,0.00,,,0.12,,2013-05-22 00:51:00,
2013-05-21 21:01:00,63.0,60.0,29.99,East,90,0.0,0.0,90,0.00,,,0.12,,2013-05-22 01:01:00,
2013-05-21 21:11:00,63.0,60.0,29.99,East,90,0.0,0.0,90,0.00,,,0.12,,2013-05-22 01:11:00,
2013-05-21 21:21:00,60.0,58.0,29.99,SE,145,0.0,0.0,94,0.00,,,0.12,,2013-05-22 01:21:00,
2013-05-21 21:32:00,59.0,58.0,29.99,East,79,0.0,0.0,95,0.00,,,0.12,,2013-05-22 01:32:00,
2013-05-21 21:42:00,59.0,57.0,29.97,SSE,147,0.0,0.0,94,0.00,,,0.12,,2013-05-22 01:42:00,
2013-05-21 21:52:00,59.0,57.0,29.97,SSE,147,0.0,0.0,94,0.00,,,0.12,,2013-05-22 01:52:00,
2013-05-21 22:02:00,58.0,56.0,29.96,East,91,0.0,0.0,94,0.00,,,0.12,,2013-05-22 02:02:00,
2013-05-21 22:11:00,58.0,56.0,29.98,ENE,77,0.0,0.0,94,0.00,,,0.12,,2013-05-22 02:11:00,
2013-05-21 22:21:00,58.0,56.0,29.98,ENE,77,0.0,0.0,94,0.00,,,0.12,,2013-05-22 02:21:00,
2013-05-21 22:32:00,58.0,56.0,29.98,NE,49,3.0,3.0,94,0.00,,,0.12,,2013-05-22 02:32:00,
2013-05-21 22:42:00,58.0,57.0,30.01,NE,44,0.0,1.0,95,0.00,,,0.12,,2013-05-22 02:42:00,
2013-05-21 22:51:00,58.0,57.0,30.01,NE,44,0.0,1.0,95,0.00,,,0.12,,2013-05-22 02:51:00,
2013-05-21 23:01:00,59.0,57.0,29.99,ENE,73,0.0,1.0,94,0.00,,,0.12,,2013-05-22 03:01:00,
2013-05-21 23:11:00,59.0,57.0,29.98,ENE,68,0.0,1.0,94,0.00,,,0.12,,2013-05-22 03:11:00,
2013-05-21 23:21:00,59.0,57.0,29.98,ENE,68,0.0,1.0,94,0.00,,,0.12,,2013-05-22 03:21:00,
2013-05-21 23:33:00,59.0,57.0,29.98,ENE,76,0.0,6.0,93,0.00,,,0.02,,2013-05-22 03:33:00,
2013-05-21 23:43:00,59.0,57.0,29.98,NE,45,2.0,6.0,92,0.00,,,0.02,,2013-05-22 03:43:00,
2013-05-21 23:53:00,59.0,57.0,29.98,NE,45,2.0,6.0,92,0.00,,,0.02,,2013-05-22 03:53:00,